GW2947 Weather Reports


time (UTC)temp
F
wind
direction
speed
knots
gust
knots
rain 1hr
in
rain 24hr
in
rain mn
in
humidity
%
barometer
mb
20260506035455 64 281 0.0 0.0 0.00 0.00 0.00 41 1197.3
20260506034951 64 276 0.0 6.1 0.00 0.00 0.00 40 1197.3
20260506034449 64 280 0.0 8.7 0.00 0.00 0.00 37 1197.2
20260506033946 63 276 0.0 0.0 0.00 0.00 0.00 38 1197.2
20260506033444 64 275 0.0 0.0 0.00 0.00 0.00 37 1197.0
20260506032940 65 277 0.0 0.0 0.00 0.00 0.00 35 1196.9
20260506032437 66 299 0.9 1.7 0.00 0.00 0.00 35 1196.7
20260506031933 66 299 0.9 1.7 0.00 0.00 0.00 34 1196.7
20260506031431 66 267 0.0 1.7 0.00 0.00 0.00 34 1196.3
20260506030929 66 279 0.0 0.9 0.00 0.00 0.00 34 1196.4
20260506030427 66 265 0.0 0.0 0.00 0.00 0.00 35 1196.5
20260506025923 66 279 0.0 0.9 0.00 0.00 0.00 35 1196.4
20260506025420 67 281 0.0 1.7 0.00 0.00 0.00 34 1196.2
20260506024917 67 281 0.0 1.7 0.00 0.00 0.00 34 1196.2
20260506024414 66 279 0.0 0.0 0.00 0.00 0.00 35 1196.4
20260506023909 67 273 0.0 0.0 0.00 0.00 0.00 35 1196.2
20260506023407 67 279 0.0 0.9 0.00 0.00 0.00 36 1196.2
20260506022903 67 279 0.0 0.0 0.00 0.00 0.00 36 1196.1
20260506022401 67 279 0.0 0.0 0.00 0.00 0.00 35 1195.9
20260506021859 68 269 0.0 0.0 0.00 0.00 0.00 34 1195.9
20260506021355 68 269 0.0 0.0 0.00 0.00 0.00 34 1195.7
20260506020852 68 269 0.0 0.0 0.00 0.00 0.00 33 1195.9
20260506020350 69 276 0.0 0.0 0.00 0.00 0.00 32 1196.0
20260506015847 69 270 0.0 0.0 0.00 0.00 0.00 32 1195.7
20260506015345 69 279 0.0 0.0 0.00 0.00 0.00 32 1195.7
20260506014842 70 270 0.0 0.0 0.00 0.00 0.00 31 1195.4
20260506014338 69 270 0.0 0.0 0.00 0.00 0.00 32 1195.7
20260506013829 69 267 0.0 0.0 0.00 0.00 0.00 31 1195.6
20260506013326 69 270 0.0 0.0 0.00 0.00 0.00 31 1195.5
20260506012823 70 274 0.0 0.0 0.00 0.00 0.00 30 1195.5
20260506012320 70 278 0.0 0.0 0.00 0.00 0.00 29 1195.9
20260506011818 70 279 0.0 0.0 0.00 0.00 0.00 30 1195.6
20260506011314 71 278 0.0 0.0 0.00 0.00 0.00 30 1195.5
20260506010812 71 278 0.0 0.9 0.00 0.00 0.00 31 1195.7
20260506010309 71 278 0.0 1.7 0.00 0.00 0.00 30 1195.5
20260506005806 71 273 0.9 5.2 0.00 0.00 0.00 28 1195.5
20260506005305 72 277 0.0 0.0 0.00 0.00 0.00 28 1195.4
20260506004758 73 270 0.0 0.9 0.00 0.00 0.00 27 1195.3
20260506004257 74 275 0.0 0.9 0.00 0.00 0.00 27 1195.5
20260506003752 75 271 0.0 6.1 0.00 0.00 0.00 27 1195.3
20260506003249 74 286 3.5 7.0 0.00 0.00 0.00 27 1195.4
20260506002745 73 284 2.6 4.3 0.00 0.00 0.00 27 1195.3
20260506002241 72 290 0.0 7.8 0.00 0.00 0.00 29 1195.2
20260506001737 75 278 0.9 6.1 0.00 0.00 0.00 26 1195.3
20260506001235 75 321 3.5 9.6 0.00 0.00 0.00 27 1195.3
20260506000732 75 276 0.0 2.6 0.00 0.00 0.00 26 1195.2
20260506000229 76 324 3.5 8.7 0.00 0.00 0.00 26 1195.1
20260505235726 76 282 0.0 5.2 0.00 0.00 0.00 27 1195.2
20260505235224 75 287 0.9 7.0 0.00 0.00 0.00 26 1195.2
20260505234721 73 275 0.0 6.1 0.00 0.00 0.00 27 1194.9
20260505234218 72 271 0.0 0.0 0.00 0.00 0.00 28 1195.2
20260505233714 72 282 0.0 0.9 0.00 0.00 0.00 27 1195.2
20260505233213 73 274 0.0 0.0 0.00 0.00 0.00 27 1195.1
20260505232709 75 337 0.0 2.6 0.00 0.00 0.00 27 1195.3
20260505232207 74 277 0.0 1.7 0.00 0.00 0.00 27 1195.3
20260505231704 72 276 0.0 0.9 0.00 0.00 0.00 27 1195.3
20260505231203 73 285 0.0 7.0 0.00 0.00 0.00 27 1195.5
20260505230700 75 354 0.0 1.7 0.00 0.00 0.00 25 1195.3
20260505230156 75 275 0.0 0.0 0.00 0.00 0.00 27 1195.3
20260505225652 74 276 1.7 4.3 0.00 0.00 0.00 27 1195.5
20260505225150 72 278 0.0 4.3 0.00 0.00 0.00 30 1195.7
20260505224645 74 264 0.0 0.0 0.00 0.00 0.00 27 1195.6
20260505224143 74 272 0.0 0.9 0.00 0.00 0.00 27 1195.3
20260505223641 71 279 0.0 0.9 0.00 0.00 0.00 29 1195.6
20260505223136 72 302 0.9 8.7 0.00 0.00 0.00 29 1196.0
20260505222633 74 281 0.0 1.7 0.00 0.00 0.00 28 1195.7
20260505222129 75 277 1.7 7.0 0.00 0.00 0.00 28 1195.7
20260505221626 76 270 0.0 0.9 0.00 0.00 0.00 27 1195.7
20260505221123 75 271 0.9 4.3 0.00 0.00 0.00 29 1195.7
20260505220620 74 278 0.0 0.9 0.00 0.00 0.00 28 1195.7
20260505220118 72 271 0.0 0.9 0.00 0.00 0.00 28 1195.7
20260505215615 74 272 0.0 0.9 0.00 0.00 0.00 27 1195.7
20260505215113 75 278 0.0 5.2 0.00 0.00 0.00 26 1195.9
20260505214611 74 293 0.9 9.6 0.00 0.00 0.00 26 1196.0
20260505214108 74 285 0.9 5.2 0.00 0.00 0.00 27 1196.1
20260505213605 74 288 0.9 4.3 0.00 0.00 0.00 26 1196.0
20260505213101 74 301 0.9 6.1 0.00 0.00 0.00 27 1195.7
20260505212552 73 278 0.9 7.8 0.00 0.00 0.00 28 1196.0
20260505212050 73 273 0.0 0.0 0.00 0.00 0.00 27 1196.0
20260505211547 73 267 0.0 0.9 0.00 0.00 0.00 27 1196.3
20260505211043 72 290 3.5 6.1 0.00 0.00 0.00 28 1196.1
20260505210540 73 308 0.9 2.6 0.00 0.00 0.00 29 1196.2
20260505210037 72 274 0.0 2.6 0.00 0.00 0.00 28 1196.2
20260505205535 73 268 0.0 0.9 0.00 0.00 0.00 30 1196.1
20260505205032 73 290 2.6 5.2 0.00 0.00 0.00 28 1196.1
20260505204530 73 276 3.5 11.3 0.00 0.00 0.00 29 1196.1
20260505204027 73 281 0.0 0.9 0.00 0.00 0.00 28 1196.3
20260505203523 73 275 0.0 4.3 0.00 0.00 0.00 30 1196.0
20260505203021 70 283 0.0 4.3 0.00 0.00 0.00 30 1196.2
20260505202516 69 13 2.6 7.0 0.00 0.00 0.00 31 1196.4
20260505202012 71 284 0.0 4.3 0.00 0.00 0.00 30 1196.3
20260505201510 72 271 0.0 0.9 0.00 0.00 0.00 30 1196.4
20260505201007 71 266 0.0 7.0 0.00 0.00 0.00 34 1196.2
20260505200505 71 250 0.0 1.7 0.00 0.00 0.00 30 1196.4
20260505200001 72 319 5.2 8.7 0.00 0.00 0.00 31 1196.4
20260505195458 71 277 1.7 5.2 0.00 0.00 0.00 32 1196.5
20260505194955 69 291 0.0 0.9 0.00 0.00 0.00 33 1196.5
20260505194453 71 276 0.0 0.0 0.00 0.00 0.00 32 1196.3
20260505193952 71 286 0.0 0.9 0.00 0.00 0.00 31 1196.5
20260505193450 70 120 2.6 4.3 0.00 0.00 0.00 32 1196.5
20260505192947 68 270 0.0 0.9 0.00 0.00 0.00 36 1196.5
20260505192446 68 293 0.9 7.8 0.00 0.00 0.00 36 1196.7
20260505191943 69 270 0.0 0.9 0.00 0.00 0.00 39 1196.5
20260505191442 69 272 0.0 0.9 0.00 0.00 0.00 40 1196.7
20260505190938 68 337 1.7 5.2 0.00 0.00 0.00 38 1196.8
20260505190433 66 230 0.9 5.2 0.00 0.00 0.00 41 1196.7
20260505185929 69 249 3.5 6.1 0.00 0.00 0.00 40 1196.8
20260505185427 70 265 0.0 1.7 0.00 0.00 0.00 40 1197.1
20260505184922 68 271 0.0 0.0 0.00 0.00 0.00 40 1196.8
20260505184420 68 277 0.0 1.7 0.00 0.00 0.00 41 1196.9
20260505183916 68 269 0.0 7.0 0.00 0.00 0.00 42 1196.8
20260505183413 67 271 0.0 1.7 0.00 0.00 0.00 42 1196.9
20260505182910 67 296 0.9 1.7 0.00 0.00 0.00 43 1196.9
20260505182407 66 274 0.0 0.0 0.00 0.00 0.00 42 1197.1
20260505181903 66 275 0.0 1.7 0.00 0.00 0.00 44 1197.0
20260505181401 66 288 2.6 7.0 0.00 0.00 0.00 44 1196.9
20260505180857 66 248 0.0 0.0 0.00 0.00 0.00 45 1197.1
20260505180354 64 275 0.0 0.0 0.00 0.00 0.00 48 1196.9
20260505175850 66 270 0.0 0.0 0.00 0.00 0.00 47 1197.1
20260505175347 64 268 0.0 0.0 0.00 0.00 0.00 50 1196.9
20260505174843 62 262 0.0 1.7 0.00 0.00 0.00 50 1197.2
20260505174341 62 266 0.0 1.7 0.00 0.00 0.00 52 1197.2
20260505173837 62 219 0.0 1.7 0.00 0.00 0.00 52 1197.1
20260505173333 62 271 0.9 0.9 0.00 0.00 0.00 52 1197.0
20260505172831 61 273 0.0 0.0 0.00 0.00 0.00 54 1197.2
20260505172328 60 264 0.0 0.0 0.00 0.00 0.00 56 1197.2
20260505171827 60 271 0.0 0.0 0.00 0.00 0.00 58 1197.1
20260505171325 59 257 0.0 0.9 0.00 0.00 0.00 60 1197.1
20260505170821 60 260 0.0 0.9 0.00 0.00 0.00 60 1197.3
20260505170318 60 266 0.0 0.0 0.00 0.00 0.00 61 1197.2
20260505165814 60 296 2.6 2.6 0.00 0.00 0.00 58 1197.4
20260505165309 59 274 0.0 0.0 0.00 0.00 0.00 61 1197.6
20260505164805 57 272 0.0 0.0 0.00 0.00 0.00 66 1197.3
20260505164303 57 264 0.0 0.0 0.00 0.00 0.00 65 1197.2
20260505163801 55 272 0.0 0.0 0.00 0.00 0.00 67 1197.4
20260505163259 56 269 0.0 4.3 0.00 0.00 0.00 69 1197.3
20260505162756 55 285 2.6 4.3 0.00 0.00 0.00 68 1197.3
20260505162253 54 277 0.0 0.9 0.00 0.00 0.00 70 1197.6
20260505161750 54 252 0.0 0.9 0.00 0.00 0.00 71 1197.6
20260505161247 54 275 0.0 4.3 0.00 0.00 0.00 72 1197.2
20260505160744 54 275 0.0 0.0 0.00 0.00 0.00 71 1197.6
20260505160242 52 272 0.0 4.3 0.00 0.00 0.00 75 1197.6
20260505153221 51 279 0.0 4.3 0.00 0.00 0.00 79 1197.4
20260505152718 50 285 0.9 2.6 0.00 0.00 0.00 80 1197.7
20260505152214 50 297 1.7 2.6 0.00 0.00 0.00 80 1197.4
20260505151709 50 272 0.0 1.7 0.00 0.00 0.00 82 1197.6
20260505151207 49 273 0.0 1.7 0.00 0.00 0.00 82 1197.6
20260505150703 49 298 3.5 5.2 0.00 0.00 0.00 83 1197.3
20260505150201 48 294 0.9 5.2 0.00 0.00 0.00 84 1197.4
20260505140633 47 273 0.0 0.0 0.00 0.00 0.00 90 1196.8
20260505140131 46 273 0.0 0.0 0.00 0.00 0.00 93 1196.9
20260505124544 42 271 0.0 0.0 0.00 0.00 0.00 97 1196.2
20260505124040 42 271 0.0 0.0 0.00 0.00 0.00 97 1196.1
20260505123537 43 275 0.0 0.0 0.00 0.00 0.00 97 1195.9
20260505123033 43 275 0.0 0.0 0.00 0.00 0.00 97 1195.9
20260505122530 43 275 0.0 0.0 0.00 0.00 0.00 97 1196.0
20260505122027 42 271 0.0 0.0 0.00 0.00 0.00 96 1196.0
20260505121523 42 271 0.0 0.0 0.00 0.00 0.00 96 1195.6
20260505121020 42 271 0.0 0.0 0.00 0.00 0.00 96 1195.9
20260505120516 42 271 0.0 0.0 0.00 0.00 0.00 96 1195.7
20260505120012 42 271 0.0 0.0 0.00 0.00 0.00 96 1195.7
20260505115507 42 271 0.0 0.0 0.00 0.00 0.00 96 1195.7
20260505115005 42 271 0.0 0.0 0.00 0.00 0.00 95 1196.0
20260505114502 43 271 0.0 0.0 0.00 0.00 0.00 95 1195.7
20260505113958 43 271 0.0 0.0 0.00 0.00 0.00 95 1195.7
20260505113454 43 271 0.0 0.0 0.00 0.00 0.00 95 1195.4
20260505112950 43 271 0.0 0.0 0.00 0.00 0.00 94 1195.6
20260505112447 44 271 0.0 0.0 0.00 0.00 0.00 94 1195.5
20260505111944 44 271 0.0 0.0 0.00 0.00 0.00 94 1195.9
20260505111438 44 271 0.0 0.0 0.00 0.00 0.00 94 1195.5
20260505110935 44 268 0.0 0.0 0.00 0.00 0.00 94 1195.4
20260505110432 45 270 0.0 0.0 0.00 0.00 0.00 94 1195.7
20260505101903 46 271 0.0 0.0 0.00 0.00 0.00 92 1195.4
20260505101357 46 263 0.0 0.0 0.00 0.00 0.00 92 1195.2
20260505100854 46 277 0.0 0.0 0.00 0.00 0.00 92 1195.4
20260505100350 46 278 0.0 0.0 0.00 0.00 0.00 92 1195.4
20260505095846 46 270 0.0 0.0 0.00 0.00 0.00 92 1195.2
20260505095344 46 278 0.0 0.0 0.00 0.00 0.00 92 1195.2
20260505094839 46 271 0.0 0.0 0.00 0.00 0.00 91 1195.3
20260505094336 46 315 0.0 0.0 0.00 0.00 0.00 91 1195.1
20260505093832 47 273 0.0 0.0 0.00 0.00 0.00 90 1195.4
20260505093330 47 272 0.0 1.7 0.00 0.00 0.00 90 1195.2
20260505092826 47 262 0.0 0.9 0.00 0.00 0.00 90 1195.1
20260505092325 47 285 0.9 2.6 0.00 0.00 0.00 90 1195.2
20260505091822 47 268 0.0 2.6 0.00 0.00 0.00 90 1195.4
20260505091320 48 266 0.0 4.3 0.00 0.00 0.00 90 1195.3
20260505090818 48 279 0.0 2.6 0.00 0.00 0.00 90 1195.4
20260505090316 48 268 0.0 0.0 0.00 0.00 0.00 90 1195.3
20260505085813 48 274 0.0 0.9 0.00 0.00 0.00 89 1195.2
20260505085310 48 275 0.0 0.0 0.00 0.00 0.00 89 1195.2
20260505084808 48 272 0.0 0.9 0.00 0.00 0.00 89 1195.1
20260505084307 48 283 0.0 0.0 0.00 0.00 0.00 89 1195.2
20260505083803 48 272 0.0 0.0 0.00 0.00 0.00 89 1195.3
20260505083300 48 268 0.0 0.0 0.00 0.00 0.00 89 1195.4
20260505082756 48 273 0.0 0.0 0.00 0.00 0.00 89 1195.3
20260505082253 48 266 0.0 0.0 0.00 0.00 0.00 89 1195.4
20260505081749 48 270 0.0 0.9 0.00 0.00 0.00 89 1195.2
20260505081247 48 263 0.0 0.9 0.00 0.00 0.00 89 1195.4
20260505080743 48 269 0.0 0.0 0.00 0.00 0.00 89 1195.3
20260505080239 49 269 0.0 0.0 0.00 0.00 0.00 88 1195.2
20260505075735 49 274 0.0 0.9 0.00 0.00 0.00 88 1195.3
20260505075232 49 269 0.0 0.9 0.00 0.00 0.00 88 1195.5
20260505074729 49 266 0.0 0.0 0.00 0.00 0.00 88 1195.2
20260505074227 49 284 0.0 0.0 0.00 0.00 0.00 88 1195.3
20260505073724 49 270 0.0 0.0 0.00 0.00 0.00 87 1195.5
20260505073222 50 261 0.0 0.0 0.00 0.00 0.00 87 1195.4
20260505072718 50 279 1.7 4.3 0.00 0.00 0.00 87 1195.2
20260505072214 50 273 0.0 0.0 0.00 0.00 0.00 88 1194.9
20260505071709 50 275 0.0 0.9 0.00 0.00 0.00 88 1195.2
20260505071207 50 268 0.0 2.6 0.00 0.00 0.00 88 1194.8
20260505070705 50 272 0.0 0.0 0.00 0.00 0.00 88 1194.9
20260505070201 50 268 0.0 0.9 0.00 0.00 0.00 88 1194.9
20260505065656 50 270 0.0 0.0 0.00 0.00 0.00 88 1194.9
20260505065154 50 276 0.0 0.9 0.00 0.00 0.00 88 1194.8
20260505064650 50 270 0.0 0.0 0.00 0.00 0.00 88 1194.9
20260505064149 50 268 0.0 1.7 0.00 0.00 0.00 87 1195.1
20260505063646 50 256 0.0 0.0 0.00 0.00 0.00 87 1195.2
20260505063142 50 275 0.9 1.7 0.00 0.00 0.00 86 1194.8
20260505062638 50 284 0.0 4.3 0.00 0.00 0.00 86 1194.5
20260505062136 50 263 0.9 4.3 0.00 0.00 0.00 86 1194.7
20260505061633 50 275 0.0 0.9 0.00 0.00 0.00 86 1194.5
20260505061131 51 277 0.0 0.9 0.00 0.00 0.00 85 1194.5
20260505060628 51 259 1.7 4.3 0.00 0.00 0.00 85 1194.5
20260505060125 51 290 0.0 2.6 0.00 0.00 0.00 85 1194.4
20260505055620 51 274 1.7 5.2 0.00 0.00 0.00 85 1194.1
20260505055117 51 284 2.6 7.8 0.00 0.00 0.00 85 1193.9
20260505054614 51 309 2.6 4.3 0.00 0.00 0.00 85 1193.8
20260505054112 51 274 0.9 1.7 0.00 0.00 0.00 85 1193.7
20260505053609 51 267 0.0 4.3 0.00 0.00 0.00 84 1193.6
20260505053105 51 281 0.0 5.2 0.00 0.00 0.00 84 1193.8
20260505052603 52 267 0.0 7.0 0.00 0.00 0.00 83 1193.6
20260505052100 52 335 0.9 4.3 0.00 0.00 0.00 83 1193.8
20260505051557 52 268 0.9 5.2 0.00 0.00 0.00 83 1193.3
20260505051055 52 264 0.0 6.1 0.00 0.00 0.00 83 1193.6
20260505050553 52 308 0.0 7.0 0.00 0.00 0.00 83 1193.6
20260505041520 53 267 0.0 6.1 0.00 0.00 0.00 81 1193.0
20260505041018 53 274 4.3 7.8 0.00 0.00 0.00 80 1192.5
20260505040515 54 270 2.6 11.3 0.00 0.00 0.00 79 1192.8
20260505040012 54 285 0.0 4.3 0.00 0.00 0.00 78 1192.5